Location: Gwatt
(46.7204°N, 7.6223°E)
Time: 19:01:58
(UTC+00:00)

Transit 2A - Pass Details

Date: 24 January 2021
Orbit: 600 x 958 km, 66.7° (Epoch: 26 February)

Event Time Altitude Azimuth Distance (km) Brightness Sun altitude
Rises 09:26:04 0° 331° (NNW) 3,121 8.5 17.4°
Reaches altitude 10° 09:30:27 10° 7° (N) 2,105 7.9 17.8°
Maximum altitude 09:31:45 11° 24° (NNE) 2,012 7.9 18.0°
Drops below altitude 10° 09:33:03 10° 40° (NE) 2,056 8.1 18.1°
Sets 09:37:08 0° 77° (ENE) 2,899 9.2 18.4°
